Williston, ND

8:18 PM CDT on May 23, 2017 (GMT -0500)
Sloulin International

Weather History for KISN - February, 2013

Change the Weather History Date:

Monday, February 4, 2013

  Actual Average Record
Temperature  
Mean Temperature 27 °F 14 °F  
Max Temperature 36 °F 24 °F 53 °F (1991)
Min Temperature 18 °F 3 °F -49 °F (1907)
Degree Days  
Heating Degree Days 38 51  
Month to date heating degree days 182 207  
Since 1 July heating degree days 5556 5628  
Cooling Degree Days 0 0  
Month to date cooling degree days 0 0  
Year to date cooling degree days 0 0  
Moisture  
Dew Point 25 °F    
Average Humidity 88    
Maximum Humidity 100    
Minimum Humidity 75    
Precipitation  
Precipitation 0.00 in 0.01 in 0.29 in (1967)
Month to date precipitation 0.05 0.05  
Year to date precipitation 0.48 0.64  
Snow  
Snow 0.00 in - - ()
Month to date snowfall 0.5  
Snow Depth 4.00 in    
Sea Level Pressure  
Sea Level Pressure 29.77 in    
Wind  
Wind Speed 10 mph (SW)    
Max Wind Speed 21 mph    
Max Gust Speed 26 mph    
Visibility 10 miles    
Events      
T = Trace of Precipitation, MM = Missing Value Source: NWS Daily Summary

Daily Weather History Graph

Daily Weather History Graph

Search for Another Location

Airport or City:

Trip Planner

Search our weather history database for the weather conditions in past years. The results will help you decide how hot, cold, wet, or windy it might be!

Date:

Astronomy

Feb. 04, 2013 Rise Set
Actual Time 8:18 AM CST 5:59 PM CST
Civil Twilight 7:45 AM CST 6:32 PM CST
Nautical Twilight 7:07 AM CST 7:09 PM CST
Astronomical Twilight 6:31 AM CST 7:46 PM CST
Moon 3:02 AM CST (2/4) 12:18 PM CST (2/4)
Length of Visible Light 10h 47m
Length of Day
9h 41m
Last Quarter, 37% of the Moon is Illuminated
Feb 4
Last Quarter
Feb 10
New
Feb 17
First Quarter
Feb 25
Full
Mar 4
Last Quarter

Hourly Weather History & Observations

Time (CST) Temp. Windchill Dew Point Humidity Pressure Visibility Wind Dir Wind Speed Gust Speed Precip Events Conditions
12:52 AM 18.0 °F 12.7 °F 15.1 °F 88% 30.02 in 10.0 mi SSW 3.5 mph - N/A   Overcast
1:52 AM 19.0 °F 13.9 °F 16.0 °F 88% 30.00 in 10.0 mi South 3.5 mph - N/A   Overcast
2:52 AM 19.0 °F 13.9 °F 17.1 °F 92% 29.98 in 10.0 mi South 3.5 mph - N/A   Overcast
4:52 AM 19.4 °F 11.5 °F 17.6 °F 93% 29.83 in 10.0 mi SW 5.8 mph - N/A   Overcast
5:52 AM 21.9 °F 15.7 °F 19.9 °F 92% 29.91 in 10.0 mi South 4.6 mph - N/A   Overcast
6:52 AM 21.9 °F 17.2 °F 21.0 °F 96% 29.89 in 9.0 mi SSW 3.5 mph - N/A   Overcast
7:52 AM 24.1 °F 19.7 °F 23.0 °F 96% 29.85 in 10.0 mi South 3.5 mph - N/A   Overcast
8:52 AM 26.1 °F 18.4 °F 24.1 °F 92% 29.81 in 10.0 mi South 6.9 mph - N/A   Overcast
9:08 AM 26.6 °F 19.1 °F 24.8 °F 93% 29.71 in 10.0 mi South 6.9 mph - N/A   Overcast
9:52 AM 27.0 °F 19.5 °F 25.0 °F 92% 29.78 in 10.0 mi South 6.9 mph - N/A   Mostly Cloudy
10:52 AM 28.0 °F 18.6 °F 25.0 °F 88% 29.75 in 10.0 mi SSW 10.4 mph - N/A   Mostly Cloudy
11:52 AM 30.9 °F 21.7 °F 26.1 °F 82% 29.73 in 10.0 mi SW 11.5 mph - N/A   Clear
12:52 PM 32.0 °F 22.1 °F 28.0 °F 85% 29.70 in 10.0 mi SW 13.8 mph - N/A   Mostly Cloudy
1:52 PM 36.0 °F 26.0 °F 28.0 °F 73% 29.67 in 10.0 mi WSW 17.3 mph - N/A   Clear
2:52 PM 35.1 °F 25.2 °F 28.0 °F 76% 29.68 in 10.0 mi West 16.1 mph - N/A   Clear
3:52 PM 35.1 °F 25.9 °F 28.0 °F 76% 29.68 in 10.0 mi West 13.8 mph 21.9 mph N/A   Clear
4:52 PM 34.0 °F 28.0 °F 28.9 °F 82% 29.69 in 10.0 mi SW 6.9 mph - N/A   Clear
5:52 PM 34.0 °F 23.8 °F 28.9 °F 82% 29.67 in 10.0 mi West 16.1 mph - N/A   Clear
6:52 PM 34.0 °F 23.8 °F 28.9 °F 82% 29.68 in 10.0 mi West 16.1 mph - N/A   Overcast
7:52 PM 34.0 °F 22.7 °F 28.9 °F 82% 29.69 in 10.0 mi West 19.6 mph - N/A   Overcast
8:52 PM 34.0 °F 26.0 °F 28.0 °F 79% 29.72 in 10.0 mi NW 10.4 mph - N/A   Overcast
9:52 PM 34.0 °F 24.2 °F 28.0 °F 79% 29.70 in 10.0 mi West 15.0 mph - N/A   Mostly Cloudy
10:52 PM 32.0 °F 21.2 °F 26.1 °F 79% 29.76 in 10.0 mi West 16.1 mph - N/A   Scattered Clouds
11:52 PM 32.0 °F 22.5 °F 26.6 °F 80% 29.71 in 10.0 mi West 12.7 mph - N/A   Overcast